TimeMDT,TemperatureF,Dew PointF,Humidity,Sea Level PressureIn,VisibilityMPH,Wind Direction,Wind SpeedMPH,Gust SpeedMPH,PrecipitationIn,Events,Conditions,WindDirDegrees,DateUTC
12:15 AM,60.8,53.6,77,30.33,10.0,East,4.6,-,0.01,,Overcast,90,2013-07-20 06:15:00
12:35 AM,60.8,55.4,82,30.32,9.0,NE,3.5,-,0.02,,Overcast,50,2013-07-20 06:35:00
12:55 AM,60.8,55.4,82,30.32,10.0,Calm,Calm,-,0.03,,Overcast,0,2013-07-20 06:55:00
1:15 AM,60.8,55.4,82,30.32,10.0,East,6.9,-,N/A,,Overcast,80,2013-07-20 07:15:00
1:35 AM,60.8,55.4,82,30.31,10.0,East,5.8,-,0.01,,Overcast,90,2013-07-20 07:35:00
1:55 AM,59.0,53.6,82,30.31,10.0,Calm,Calm,-,0.01,,Overcast,0,2013-07-20 07:55:00
2:15 AM,57.2,53.6,88,30.30,10.0,SE,3.5,-,N/A,,Overcast,140,2013-07-20 08:15:00
2:35 AM,59.0,53.6,82,30.29,10.0,East,4.6,-,N/A,,Overcast,100,2013-07-20 08:35:00
2:55 AM,59.0,51.8,77,30.29,10.0,ESE,4.6,-,N/A,,Mostly Cloudy,110,2013-07-20 08:55:00
3:15 AM,57.2,53.6,88,30.28,10.0,Calm,Calm,-,N/A,,Overcast,0,2013-07-20 09:15:00
3:35 AM,57.2,53.6,88,30.28,10.0,ENE,3.5,-,N/A,,Overcast,60,2013-07-20 09:35:00
3:55 AM,59.0,53.6,82,30.27,10.0,ENE,4.6,-,N/A,,Mostly Cloudy,60,2013-07-20 09:55:00
4:15 AM,57.2,51.8,82,30.26,10.0,NE,3.5,-,N/A,,Partly Cloudy,50,2013-07-20 10:15:00
4:35 AM,55.4,51.8,88,30.27,10.0,NNE,6.9,-,N/A,,Mostly Cloudy,20,2013-07-20 10:35:00
4:55 AM,57.2,53.6,88,30.28,10.0,North,5.8,-,N/A,,Overcast,350,2013-07-20 10:55:00
5:15 AM,55.4,53.6,94,30.28,10.0,North,3.5,-,N/A,,Mostly Cloudy,350,2013-07-20 11:15:00
5:35 AM,55.4,53.6,94,30.28,10.0,Calm,Calm,-,N/A,,Partly Cloudy,0,2013-07-20 11:35:00
5:55 AM,55.4,51.8,88,30.28,10.0,ESE,4.6,-,N/A,,Clear,120,2013-07-20 11:55:00
6:15 AM,53.6,51.8,94,30.28,10.0,SE,4.6,-,N/A,,Clear,130,2013-07-20 12:15:00
6:35 AM,53.6,51.8,94,30.28,10.0,SSE,4.6,-,N/A,,Clear,150,2013-07-20 12:35:00
6:55 AM,55.4,51.8,88,30.28,10.0,SSE,4.6,-,N/A,,Clear,160,2013-07-20 12:55:00
7:15 AM,57.2,53.6,88,30.28,10.0,Calm,Calm,-,N/A,,Clear,0,2013-07-20 13:15:00
7:35 AM,59.0,53.6,82,30.28,10.0,Calm,Calm,-,N/A,,Clear,0,2013-07-20 13:35:00
7:55 AM,60.8,53.6,77,30.28,10.0,Calm,Calm,-,N/A,,Clear,0,2013-07-20 13:55:00
8:15 AM,62.6,51.8,68,30.28,10.0,Calm,Calm,-,N/A,,Clear,0,2013-07-20 14:15:00
8:35 AM,62.6,53.6,72,30.28,10.0,Calm,Calm,-,N/A,,Clear,0,2013-07-20 14:35:00
8:55 AM,64.4,53.6,68,30.28,10.0,North,4.6,-,N/A,,Clear,350,2013-07-20 14:55:00
9:15 AM,64.4,53.6,68,30.28,10.0,NNW,4.6,-,N/A,,Clear,340,2013-07-20 15:15:00
9:35 AM,66.2,51.8,60,30.27,10.0,Calm,Calm,-,N/A,,Clear,0,2013-07-20 15:35:00
9:55 AM,68.0,53.6,60,30.27,10.0,WSW,4.6,-,N/A,,Clear,240,2013-07-20 15:55:00
10:15 AM,69.8,51.8,53,30.27,10.0,West,3.5,-,N/A,,Clear,280,2013-07-20 16:15:00
10:35 AM,69.8,51.8,53,30.27,10.0,Calm,Calm,-,N/A,,Clear,0,2013-07-20 16:35:00
10:55 AM,71.6,51.8,50,30.26,10.0,NW,4.6,-,N/A,,Clear,310,2013-07-20 16:55:00
11:15 AM,73.4,51.8,47,30.26,10.0,WNW,4.6,-,N/A,,Clear,300,2013-07-20 17:15:00
11:35 AM,73.4,50.0,44,30.25,10.0,WNW,6.9,-,N/A,,Clear,290,2013-07-20 17:35:00
11:55 AM,75.2,50.0,41,30.24,10.0,North,3.5,-,N/A,,Clear,10,2013-07-20 17:55:00
12:15 PM,77.0,50.0,39,30.23,10.0,NW,9.2,-,N/A,,Clear,310,2013-07-20 18:15:00
12:35 PM,-9999,-9999,N/A,30.21,10.0,SW,4.6,-,N/A,,Clear,230,2013-07-20 18:35:00
12:55 PM,-9999,-9999,N/A,30.21,10.0,North,5.8,-,N/A,,Clear,360,2013-07-20 18:55:00
1:15 PM,-9999,-9999,N/A,30.19,10.0,WNW,3.5,-,N/A,,Clear,290,2013-07-20 19:15:00
1:35 PM,80.6,48.2,32,30.18,10.0,Calm,Calm,-,N/A,,Clear,0,2013-07-20 19:35:00
1:55 PM,82.4,48.2,30,30.17,10.0,West,8.1,-,N/A,,Clear,270,2013-07-20 19:55:00
2:15 PM,82.4,46.4,28,30.16,10.0,Calm,Calm,-,N/A,,Partly Cloudy,0,2013-07-20 20:15:00
2:35 PM,82.4,46.4,28,30.15,10.0,SW,6.9,-,N/A,,Scattered Clouds,230,2013-07-20 20:35:00
2:55 PM,82.4,44.6,26,30.14,10.0,WSW,3.5,-,N/A,,Mostly Cloudy,250,2013-07-20 20:55:00
3:15 PM,84.2,44.6,25,30.13,10.0,East,5.8,-,N/A,Thunderstorm,Mostly Cloudy,90,2013-07-20 21:15:00
3:35 PM,86.0,46.4,25,30.14,8.0,ENE,26.5,51.8,N/A,Thunderstorm,Mostly Cloudy,60,2013-07-20 21:35:00
3:55 PM,82.4,48.2,30,30.15,10.0,East,23.0,31.1,N/A,Thunderstorm,Thunderstorm,90,2013-07-20 21:55:00
4:15 PM,-9999,-9999,N/A,30.15,10.0,East,27.6,33.4,N/A,Thunderstorm,Partly Cloudy,100,2013-07-20 22:15:00
4:35 PM,-9999,-9999,N/A,30.14,10.0,ESE,27.6,35.7,N/A,,Clear,110,2013-07-20 22:35:00
4:55 PM,-9999,-9999,N/A,30.12,10.0,SE,19.6,32.2,N/A,,Clear,130,2013-07-20 22:55:00
5:15 PM,75.2,42.8,31,30.12,10.0,SE,16.1,24.2,N/A,,Clear,130,2013-07-20 23:15:00
5:35 PM,75.2,42.8,31,30.12,10.0,ESE,13.8,-,N/A,,Clear,120,2013-07-20 23:35:00
5:55 PM,73.4,46.4,38,30.13,10.0,SE,13.8,21.9,N/A,,Clear,130,2013-07-20 23:55:00
6:15 PM,73.4,46.4,38,30.12,10.0,SE,17.3,23.0,N/A,,Clear,130,2013-07-21 00:15:00
6:35 PM,73.4,44.6,36,30.13,10.0,South,11.5,-,N/A,,Clear,170,2013-07-21 00:35:00
6:55 PM,75.2,44.6,34,30.14,10.0,South,12.7,-,N/A,,Mostly Cloudy,170,2013-07-21 00:55:00
7:15 PM,73.4,46.4,38,30.16,10.0,South,9.2,-,N/A,,Overcast,180,2013-07-21 01:15:00
7:35 PM,73.4,46.4,38,30.16,10.0,WSW,10.4,-,N/A,,Overcast,250,2013-07-21 01:35:00
7:55 PM,73.4,48.2,41,30.18,10.0,WNW,9.2,-,N/A,,Overcast,300,2013-07-21 01:55:00
8:15 PM,71.6,48.2,43,30.18,10.0,West,6.9,-,N/A,,Overcast,260,2013-07-21 02:15:00
8:35 PM,73.4,46.4,38,30.19,10.0,East,10.4,-,N/A,Thunderstorm,Thunderstorm,80,2013-07-21 02:35:00
8:55 PM,64.4,53.6,68,30.18,10.0,SE,11.5,-,0.02,Thunderstorm,Thunderstorm,140,2013-07-21 02:55:00
9:15 PM,64.4,55.4,73,30.19,10.0,East,10.4,-,N/A,,Overcast,90,2013-07-21 03:15:00
9:35 PM,64.4,55.4,73,30.21,10.0,ENE,10.4,-,N/A,,Overcast,60,2013-07-21 03:35:00
9:55 PM,64.4,55.4,73,30.22,10.0,Calm,Calm,-,N/A,,Mostly Cloudy,0,2013-07-21 03:55:00
10:15 PM,64.4,55.4,73,30.20,10.0,South,9.2,-,N/A,,Scattered Clouds,190,2013-07-21 04:15:00
10:35 PM,64.4,55.4,73,30.20,10.0,South,9.2,-,N/A,,Scattered Clouds,170,2013-07-21 04:35:00
10:55 PM,62.6,57.2,82,30.21,10.0,East,4.6,-,N/A,,Scattered Clouds,90,2013-07-21 04:55:00
11:15 PM,60.8,55.4,82,30.22,10.0,East,8.1,-,N/A,,Partly Cloudy,100,2013-07-21 05:15:00
11:35 PM,62.6,55.4,77,30.23,10.0,East,6.9,-,N/A,,Clear,90,2013-07-21 05:35:00
11:55 PM,62.6,55.4,77,30.22,10.0,East,5.8,-,N/A,,Clear,90,2013-07-21 05:55:00